Simultaneous Nadir Overpasses (SNOs) Predictions

Prediction of SNOs between LANDSAT-8 and NOAA-19 Satellite Orbit:

Table of predicted SNOs for the next 14.0 days since TLE Epoch: 12/13/2014
Index Date (LANDSAT-8) Time (LANDSAT-8) Lat,Lon (LANDSAT-8) SZA (LANDSAT-8 ) Date (NOAA-19) Time (NOAA-19) Lat,Lon (NOAA-19) SZA (NOAA-19 ) Distance(km) Time Diff (sec)
1 12/15/2014 15:18:22 72.54, -49.36 95.72 12/15/2014 15:17:57 72.57, -49.37 95.76 3.45 25
2 12/15/2014 16:07:52 -72.43, 118.06 84.39 12/15/2014 16:09:00 -72.43, 118.14 84.38 2.71 68
3 12/17/2014 20:02:43 72.61,-120.32 95.89 12/17/2014 20:01:34 72.60,-120.30 95.87 1.80 69
4 12/17/2014 20:52:13 -72.50, 47.11 84.23 12/17/2014 20:52:38 -72.52, 47.09 84.21 2.17 25
5 12/20/2014 01:36:37 -72.54, -23.92 84.14 12/20/2014 01:36:15 -72.56, -23.87 84.11 2.93 22
6 12/20/2014 02:26:04 72.45, 143.56 95.78 12/20/2014 02:27:11 72.47, 143.58 95.80 2.15 67
7 12/22/2014 06:21:03 -72.60, -94.93 84.07 12/22/2014 06:19:52 -72.61, -94.85 84.05 3.05 71
8 12/22/2014 07:10:30 72.51, 72.55 95.85 12/22/2014 07:10:48 72.51, 72.64 95.85 2.88 18
9 12/24/2014 11:54:58 72.59, 1.58 95.91 12/24/2014 11:54:26 72.60, 1.57 95.91 0.63 32
10 12/24/2014 12:44:28 -72.49, 169.02 84.20 12/24/2014 12:45:29 -72.51, 168.98 84.18 2.79 61
11 12/26/2014 16:39:22 73.01, -68.76 96.26 12/26/2014 16:38:12 73.09, -70.37 96.35 53.17 70
12 12/26/2014 17:28:58 -72.59, 98.07 84.16 12/26/2014 17:29:06 -72.58, 97.98 84.17 3.53 8




NCC Satellite Simultaneous Nadir Overpasses (SNOs) Prediction Service
